User: anonymous   Login
Location: Banios
(43.0451°N, 0.2335°E)
Time: 01:32:57
(UTC+00:00)
Language:

BREEZE M DEB (TANK) - Orbit

View from above orbital plane
View from above orbital plane
View from above satellite
View from above satellite

Ground track
Ground track

The orbit data is extracted from the following two-line orbital elements,

1 28926U 05052C   21106.32865589  .00002514  00000-0  28136-3 0  9990
2 28926  49.5442 100.5251 5167208 103.2992 317.0713  5.37501737292155
Epoch (UTC): 16 April 2021 07:53:15
Eccentricity: 0.5167208
inclination: 49.5442°
perigee height: 275 km
apogee height: 14501 km
right ascension of ascending node: 100.5251°
argument of perigee: 103.2992°
revolutions per day: 5.37501737
mean anomaly at epoch: 317.0713°
orbit number at epoch: 29215

The dashed part of the orbit path shows where the satellite is in the earth's shadow,  

DLR